FW6610 Weather Reports


time (UTC)temp
C
wind
direction
speed
KPH
gust
KPH
rain 1hr
cm
rain 24hr
cm
rain mn
cm
humidity
%
barometer
mb
20260905185528 23 299 1.6 9.7 0.00 0.03 0.03 69 1010.5
20260905185028 23 295 3.2 8.0 0.00 0.03 0.03 67 1010.4
20260905184550 23 308 3.2 8.0 0.00 0.03 0.03 65 1010.4
20260905184029 23 49 3.2 8.0 0.00 0.03 0.03 67 1010.6
20260905183528 23 17 3.2 8.0 0.00 0.03 0.03 69 1010.7
20260905183045 23 296 1.6 8.0 0.00 0.03 0.03 70 1010.6
20260905182528 23 275 0.0 6.4 0.00 0.03 0.03 70 1010.5
20260905182029 23 319 0.0 6.4 0.00 0.03 0.03 69 1010.6
20260905181601 23 15 1.6 6.4 0.00 0.03 0.03 69 1010.5
20260905181027 23 11 3.2 6.4 0.00 0.03 0.03 68 1010.5
20260905180529 23 290 1.6 6.4 0.00 0.03 0.03 71 1010.8
20260905180051 23 279 1.6 6.4 0.00 0.03 0.03 68 1010.7
20260905175530 23 0 1.6 6.4 0.00 0.03 0.03 71 1010.6
20260905175029 23 252 1.6 14.5 0.00 0.03 0.03 68 1010.6
20260905174551 23 0 1.6 14.5 0.00 0.03 0.03 69 1010.7
20260905174030 23 160 4.8 14.5 0.00 0.03 0.03 65 1010.7
20260905173529 23 343 3.2 9.7 0.00 0.03 0.03 66 1010.7
20260905173045 23 278 1.6 9.7 0.00 0.03 0.03 69 1010.7
20260905172529 23 257 1.6 11.3 0.00 0.03 0.03 67 1010.8
20260905172029 23 32 1.6 14.5 0.00 0.03 0.03 68 1010.7
20260905171552 23 288 6.4 14.5 0.00 0.03 0.03 66 1010.7
20260905171030 23 240 1.6 6.4 0.00 0.03 0.03 69 1010.7
20260905170527 23 280 3.2 9.7 0.00 0.03 0.03 68 1010.8
20260905170053 23 345 3.2 11.3 0.00 0.03 0.03 67 1010.8
20260905165533 23 247 4.8 11.3 0.00 0.03 0.03 64 1010.6
20260905165029 23 288 3.2 11.3 0.00 0.03 0.03 66 1010.7
20260905164542 23 170 3.2 11.3 0.00 0.03 0.03 66 1010.8
20260905164029 23 154 4.8 14.5 0.00 0.03 0.03 70 1010.7
20260905163528 23 290 6.4 14.5 0.00 0.03 0.03 66 1010.7
20260905163043 24 272 3.2 9.7 0.00 0.03 0.03 67 1010.7
20260905162527 23 271 1.6 11.3 0.00 0.03 0.03 70 1010.6
20260905162028 23 62 3.2 14.5 0.00 0.03 0.03 68 1010.8
20260905161541 23 272 3.2 14.5 0.00 0.03 0.03 68 1010.7
20260905161030 23 278 4.8 14.5 0.00 0.03 0.03 66 1010.8
20260905160526 23 160 3.2 11.3 0.00 0.03 0.03 67 1010.8
20260905160115 23 307 3.2 11.3 0.00 0.03 0.03 69 1010.8
20260905155529 23 323 1.6 11.3 0.00 0.03 0.03 68 1011.1
20260905155028 23 101 3.2 16.1 0.00 0.03 0.03 70 1011.1
20260905154559 22 110 3.2 16.1 0.00 0.03 0.03 70 1011.1
20260905154029 22 224 3.2 16.1 0.00 0.03 0.03 73 1011.2
20260905153529 22 286 3.2 12.9 0.00 0.03 0.03 76 1011.2
20260905153053 22 319 4.8 12.9 0.00 0.03 0.03 72 1011.1
20260905152526 22 271 3.2 14.5 0.00 0.03 0.03 73 1011.2
20260905152025 22 314 3.2 14.5 0.00 0.03 0.03 73 1011.2
20260905151547 22 305 3.2 14.5 0.00 0.03 0.03 73 1011.3
20260905151029 22 112 1.6 9.7 0.00 0.03 0.03 73 1011.2
20260905150529 22 302 3.2 9.7 0.00 0.03 0.03 73 1011.1
20260905150046 22 16 3.2 12.9 0.03 0.03 0.03 74 1011.2
20260905145529 22 348 1.6 12.9 0.03 0.03 0.03 75 1011.2
20260905145029 22 11 1.6 11.3 0.03 0.03 0.03 76 1011.0
20260905144552 22 37 3.2 11.3 0.03 0.03 0.03 76 1011.2
20260905144032 21 285 4.8 14.5 0.03 0.03 0.03 74 1011.3
20260905143531 21 131 3.2 19.3 0.03 0.03 0.03 75 1011.2
20260905143055 21 297 6.4 19.3 0.03 0.03 0.03 75 1011.3
20260905142530 21 286 6.4 12.9 0.03 0.03 0.03 75 1011.4
20260905142030 21 275 6.4 12.9 0.03 0.03 0.03 76 1011.4
20260905141551 21 247 4.8 12.9 0.03 0.03 0.03 77 1011.3
20260905141030 20 329 4.8 14.5 0.03 0.03 0.03 77 1011.4
20260905140532 20 286 4.8 14.5 0.03 0.03 0.03 77 1011.5
20260905140052 20 162 3.2 11.3 0.00 0.00 0.00 81 1011.3
20260905135528 20 203 3.2 11.3 0.00 0.00 0.00 81 1011.3
20260905135027 20 269 3.2 9.7 0.00 0.00 0.00 84 1011.4
20260905134549 19 56 3.2 8.0 0.00 0.00 0.00 85 1011.5
20260905134030 19 241 1.6 8.0 0.00 0.00 0.00 87 1011.5
20260905133529 18 276 1.6 8.0 0.00 0.00 0.00 89 1011.3
20260905133046 18 347 1.6 6.4 0.00 0.00 0.00 92 1011.5
20260905132532 18 309 0.0 6.4 0.00 0.00 0.00 94 1011.3
20260905132030 17 0 0.0 1.6 0.00 0.00 0.00 98 1011.4
20260905131600 17 356 0.0 1.6 0.00 0.00 0.00 99 1011.3
20260905131029 17 358 0.0 1.6 0.00 0.00 0.00 99 1011.5
20260905130529 16 347 0.0 1.6 0.00 0.00 0.00 99 1011.5
20260905130051 16 0 0.0 0.0 0.00 0.00 0.00 99 1011.6
20260905125528 16 0 0.0 0.0 0.00 0.00 0.00 99 1011.5
20260905125029 16 0 0.0 0.0 0.00 0.00 0.00 99 1011.7
20260905124554 16 0 0.0 0.0 0.00 0.00 0.00 99 1011.7
20260905124033 16 0 0.0 0.0 0.00 0.00 0.00 99 1011.7
20260905123530 16 0 0.0 0.0 0.00 0.00 0.00 99 1011.6
20260905123046 15 0 0.0 0.0 0.00 0.00 0.00 99 1011.6
20260905122529 15 0 0.0 0.0 0.00 0.00 0.00 99 1011.6
20260905122028 15 0 0.0 0.0 0.00 0.00 0.00 99 1011.5
20260905121556 15 0 0.0 0.0 0.00 0.00 0.00 99 1011.4
20260905121028 15 0 0.0 0.0 0.00 0.00 0.00 99 1011.3
20260905120530 15 0 0.0 0.0 0.00 0.00 0.00 99 1011.3
20260905120110 15 0 0.0 0.0 0.00 0.00 0.00 99 1011.3
20260905115528 14 0 0.0 0.0 0.00 0.00 0.00 99 1011.2
20260905115029 14 0 0.0 0.0 0.00 0.00 0.00 99 1011.2
20260905114551 13 0 0.0 0.0 0.00 0.00 0.00 99 1011.1
20260905114029 13 0 0.0 0.0 0.00 0.00 0.00 99 1011.1
20260905113528 13 0 0.0 0.0 0.00 0.00 0.00 99 1010.9
20260905113048 13 0 0.0 0.0 0.00 0.00 0.00 99 1010.9
20260905112529 13 0 0.0 0.0 0.00 0.00 0.00 99 1011.0
20260905112028 13 0 0.0 0.0 0.00 0.00 0.00 99 1010.9
20260905111609 13 0 0.0 0.0 0.00 0.00 0.00 99 1010.9
20260905111029 13 0 0.0 0.0 0.00 0.00 0.00 98 1010.8
20260905110531 12 0 0.0 0.0 0.00 0.00 0.00 98 1010.6
20260905110057 12 0 0.0 0.0 0.00 0.00 0.00 98 1010.7
20260905105529 12 0 0.0 0.0 0.00 0.00 0.00 98 1010.6
20260905105030 12 0 0.0 0.0 0.00 0.00 0.00 98 1010.4
20260905104548 12 0 0.0 0.0 0.00 0.00 0.00 98 1010.5
20260905104029 13 0 0.0 0.0 0.00 0.00 0.00 98 1010.4
20260905103529 13 0 0.0 0.0 0.00 0.00 0.00 98 1010.4
20260905103053 13 0 0.0 0.0 0.00 0.00 0.00 98 1010.3
20260905102528 13 0 0.0 0.0 0.00 0.00 0.00 98 1010.3
20260905102027 13 0 0.0 0.0 0.00 0.00 0.00 98 1010.3
20260905101548 13 0 0.0 0.0 0.00 0.00 0.00 98 1010.3
20260905101029 13 0 0.0 0.0 0.00 0.00 0.00 98 1010.2
20260905100529 13 0 0.0 0.0 0.00 0.00 0.00 98 1010.3
20260905100055 12 0 0.0 0.0 0.00 0.00 0.00 98 1010.3
20260905095528 12 0 0.0 0.0 0.00 0.00 0.00 98 1010.2
20260905095029 13 0 0.0 0.0 0.00 0.00 0.00 98 1010.3
20260905094552 13 0 0.0 0.0 0.00 0.00 0.00 98 1010.3
20260905094028 13 0 0.0 0.0 0.00 0.00 0.00 98 1010.2
20260905093531 13 0 0.0 0.0 0.00 0.00 0.00 98 1010.2
20260905093052 13 0 0.0 0.0 0.00 0.00 0.00 98 1010.1
20260905092527 13 0 0.0 0.0 0.00 0.00 0.00 98 1010.2
20260905092027 13 0 0.0 0.0 0.00 0.00 0.00 98 1010.1
20260905091614 13 0 0.0 0.0 0.00 0.00 0.00 98 1009.9
20260905091033 13 0 0.0 0.0 0.00 0.00 0.00 98 1009.9
20260905090525 13 0 0.0 0.0 0.00 0.00 0.00 98 1009.9
20260905090044 13 0 0.0 0.0 0.00 0.00 0.00 98 1009.9
20260905085529 13 0 0.0 0.0 0.00 0.00 0.00 98 1009.9
20260905085027 13 0 0.0 0.0 0.00 0.00 0.00 98 1010.1
20260905084545 13 0 0.0 0.0 0.00 0.00 0.00 98 1010.0
20260905084029 13 0 0.0 0.0 0.00 0.00 0.00 98 1009.9
20260905083530 13 0 0.0 0.0 0.00 0.00 0.00 98 1010.1
20260905083053 13 0 0.0 0.0 0.00 0.00 0.00 98 1009.9
20260905082527 13 0 0.0 0.0 0.00 0.00 0.00 98 1009.9
20260905082026 13 0 0.0 0.0 0.00 0.00 0.00 97 1009.9
20260905081551 14 0 0.0 0.0 0.00 0.00 0.00 98 1009.8
20260905081026 14 0 0.0 0.0 0.00 0.00 0.00 98 1009.9
20260905080525 14 0 0.0 0.0 0.00 0.00 0.00 98 1010.0
20260905080050 14 0 0.0 0.0 0.00 0.00 0.00 98 1010.1
20260905075525 14 0 0.0 0.0 0.00 0.00 0.00 98 1010.1
20260905075028 14 0 0.0 0.0 0.00 0.00 0.00 98 1010.0
20260905074545 13 0 0.0 0.0 0.00 0.00 0.00 97 1010.1
20260905074033 13 0 0.0 0.0 0.00 0.00 0.00 97 1010.2
20260905073528 14 0 0.0 0.0 0.00 0.00 0.00 97 1010.0
20260905073052 14 0 0.0 0.0 0.00 0.00 0.00 98 1010.2
20260905072527 14 0 0.0 0.0 0.00 0.00 0.00 97 1010.1
20260905072027 14 0 0.0 0.0 0.00 0.00 0.00 97 1010.3
20260905071551 14 0 0.0 0.0 0.00 0.00 0.00 97 1010.1
20260905071029 14 0 0.0 0.0 0.00 0.00 0.00 97 1010.1
20260905070529 14 0 0.0 0.0 0.00 0.00 0.00 96 1010.1
20260905070136 14 0 0.0 0.0 0.00 0.00 0.00 97 1010.2
20260905065531 14 0 0.0 0.0 0.00 0.00 0.00 97 1010.2
20260905065028 14 0 0.0 0.0 0.00 0.00 0.00 96 1010.0
20260905064554 14 0 0.0 0.0 0.00 0.00 0.00 96 1010.3
20260905064028 14 0 0.0 0.0 0.00 0.00 0.00 96 1010.3
20260905063525 15 0 0.0 0.0 0.00 0.00 0.00 96 1010.2
20260905063053 15 0 0.0 0.0 0.00 0.00 0.00 96 1010.3
20260905062528 15 0 0.0 0.0 0.00 0.00 0.00 96 1010.2
20260905062028 15 0 0.0 0.0 0.00 0.00 0.00 96 1010.4
20260905061613 15 0 0.0 0.0 0.00 0.00 0.00 96 1010.1
20260905061026 15 0 0.0 0.0 0.00 0.00 0.00 96 1010.3
20260905060528 15 0 0.0 0.0 0.00 0.00 0.00 95 1010.4
20260905060046 15 0 0.0 0.0 0.00 0.00 0.00 95 1010.4
20260905055529 15 0 0.0 0.0 0.00 0.00 0.00 94 1010.6
20260905055032 15 0 0.0 0.0 0.00 0.00 0.00 94 1010.6
20260905054546 15 0 0.0 0.0 0.00 0.00 0.00 94 1010.5
20260905054028 15 0 0.0 0.0 0.00 0.00 0.00 94 1010.8
20260905053530 16 0 0.0 0.0 0.00 0.00 0.00 94 1010.8
20260905053054 16 0 0.0 0.0 0.00 0.00 0.00 93 1010.7
20260905052527 16 0 0.0 0.0 0.00 0.00 0.00 93 1010.7
20260905052027 16 0 0.0 0.0 0.00 0.00 0.00 92 1010.8
20260905051551 16 0 0.0 0.0 0.00 0.00 0.00 91 1010.9
20260905051026 16 0 0.0 0.0 0.00 0.00 0.00 91 1010.9
20260905050527 17 0 0.0 0.0 0.00 0.00 0.00 90 1010.8
20260905050048 17 0 0.0 0.0 0.00 0.00 0.00 90 1010.9
20260905045530 17 0 0.0 4.8 0.00 0.00 0.00 87 1010.9
20260905045029 17 0 0.0 4.8 0.00 0.00 0.00 88 1010.8
20260905044546 17 315 1.6 4.8 0.00 0.00 0.00 89 1010.8
20260905044028 17 16 0.0 6.4 0.00 0.00 0.00 90 1011.0
20260905043525 16 15 1.6 6.4 0.00 0.00 0.00 93 1010.9
20260905043051 16 348 0.0 1.6 0.00 0.00 0.00 95 1010.9
20260905042525 16 0 0.0 0.0 0.00 0.00 0.00 96 1010.8
20260905042027 16 0 0.0 0.0 0.00 0.00 0.00 96 1010.7
20260905041600 16 0 0.0 0.0 0.00 0.00 0.00 96 1010.8
20260905041029 16 0 0.0 0.0 0.00 0.00 0.00 96 1010.7
20260905040526 16 0 0.0 0.0 0.00 0.00 0.00 96 1010.5
20260905040048 16 0 0.0 0.0 0.00 0.00 0.00 96 1010.5
20260905035527 16 309 0.0 0.0 0.00 0.00 0.00 96 1010.4
20260905035029 16 0 0.0 0.0 0.00 0.00 0.00 95 1010.4
20260905034554 16 0 0.0 0.0 0.00 0.00 0.00 95 1010.6
20260905034024 16 0 0.0 0.0 0.00 0.00 0.00 95 1010.7
20260905033528 16 0 0.0 0.0 0.00 0.00 0.00 95 1010.8
20260905033044 16 0 0.0 0.0 0.00 0.00 0.00 95 1010.8
20260905032529 16 0 0.0 0.0 0.00 0.00 0.00 95 1010.8
20260905032027 16 0 0.0 0.0 0.00 0.00 0.00 95 1010.8
20260905031552 16 0 0.0 0.0 0.00 0.00 0.00 95 1010.8
20260905031028 16 0 0.0 0.0 0.00 0.00 0.00 95 1011.0
20260905030526 16 0 0.0 0.0 0.00 0.00 0.00 95 1010.9
20260905030046 16 0 0.0 0.0 0.00 0.00 0.00 95 1010.9
20260905025528 16 0 0.0 0.0 0.00 0.00 0.00 95 1011.0
20260905025026 16 0 0.0 0.0 0.00 0.00 0.00 95 1010.9
20260905024553 16 309 0.0 0.0 0.00 0.00 0.00 95 1010.8
20260905024028 16 0 0.0 0.0 0.00 0.00 0.00 95 1010.7
20260905023528 16 0 0.0 0.0 0.00 0.00 0.00 95 1010.7
20260905023051 16 0 0.0 0.0 0.00 0.00 0.00 95 1010.6
20260905022527 16 0 0.0 0.0 0.00 0.00 0.00 94 1010.6
20260905022030 16 0 0.0 0.0 0.00 0.00 0.00 94 1010.5
20260905021557 17 0 0.0 0.0 0.00 0.00 0.00 94 1010.6
20260905021028 17 0 0.0 0.0 0.00 0.00 0.00 94 1010.8
20260905020528 17 0 0.0 0.0 0.00 0.00 0.00 93 1010.7
20260905020052 17 0 0.0 0.0 0.00 0.00 0.00 93 1010.8
20260905015529 17 0 0.0 0.0 0.00 0.00 0.00 93 1011.0
20260905015030 17 0 0.0 0.0 0.00 0.00 0.00 92 1010.9
20260905014545 17 0 0.0 0.0 0.00 0.00 0.00 92 1010.9
20260905014030 17 0 0.0 0.0 0.00 0.00 0.00 92 1010.9
20260905013529 17 0 0.0 0.0 0.00 0.00 0.00 92 1010.9
20260905013044 17 0 0.0 0.0 0.00 0.00 0.00 91 1011.1
20260905012527 18 0 0.0 0.0 0.00 0.00 0.00 91 1010.9
20260905012031 18 0 0.0 0.0 0.00 0.00 0.00 91 1011.0
20260905011556 18 0 0.0 0.0 0.00 0.00 0.00 91 1011.0
20260905011030 18 0 0.0 0.0 0.00 0.00 0.00 90 1010.9
20260905010531 18 0 0.0 0.0 0.00 0.00 0.00 90 1011.0
20260905010051 18 0 0.0 0.0 0.00 0.00 0.00 90 1011.0
20260905005530 18 0 0.0 0.0 0.00 0.00 0.00 89 1010.9
20260905005030 18 0 0.0 0.0 0.00 0.00 0.00 89 1011.0
20260905004550 19 0 0.0 0.0 0.00 0.00 0.00 89 1010.9
20260905004030 19 0 0.0 0.0 0.00 0.00 0.00 89 1011.1
20260905003531 19 0 0.0 0.0 0.00 0.00 0.00 88 1011.0
20260905003046 19 0 0.0 0.0 0.00 0.00 0.00 88 1010.8
20260905002529 20 0 0.0 0.0 0.00 0.00 0.00 87 1010.7
20260905002032 20 0 0.0 0.0 0.00 0.00 0.00 87 1010.7
20260905001601 20 0 0.0 0.0 0.00 0.00 0.00 86 1010.6
20260905001033 20 0 0.0 0.0 0.00 0.00 0.00 85 1010.6
20260905000531 20 0 0.0 0.0 0.00 0.00 0.00 85 1010.4
20260904235529 21 0 0.0 1.6 0.00 0.00 0.00 81 1010.3
20260904235032 21 0 0.0 4.8 0.00 0.00 0.00 80 1010.2
20260904234546 21 0 0.0 4.8 0.00 0.00 0.00 81 1010.3
20260904234029 21 0 0.0 1.6 0.00 0.00 0.00 82 1010.4
20260904233530 20 0 0.0 1.6 0.00 0.00 0.00 82 1010.3
20260904233114 20 0 0.0 0.0 0.00 0.00 0.00 84 1010.3
20260904232531 21 0 0.0 0.0 0.00 0.00 0.00 84 1010.3
20260904232031 21 0 0.0 0.0 0.00 0.00 0.00 84 1010.4
20260904231602 21 0 0.0 0.0 0.00 0.00 0.00 82 1010.2
20260904231031 21 0 0.0 0.0 0.00 0.00 0.00 82 1010.3
20260904230531 21 0 0.0 0.0 0.00 0.00 0.00 83 1010.2
20260904230051 22 0 0.0 0.0 0.00 0.00 0.00 82 1010.1
20260904225529 22 0 0.0 0.0 0.00 0.00 0.00 81 1010.1
20260904225032 22 0 0.0 1.6 0.00 0.00 0.00 81 1010.2
20260904224608 23 0 0.0 1.6 0.00 0.00 0.00 79 1010.2
20260904224030 23 0 0.0 1.6 0.00 0.00 0.00 78 1010.3
20260904223529 23 0 0.0 1.6 0.00 0.00 0.00 77 1010.1
20260904223056 23 0 0.0 1.6 0.00 0.00 0.00 75 1009.9
20260904222531 24 0 0.0 1.6 0.00 0.00 0.00 72 1010.0
20260904222029 25 0 0.0 1.6 0.00 0.00 0.00 69 1010.0
20260904221555 25 309 0.0 1.6 0.00 0.00 0.00 66 1009.9
20260904221029 25 269 0.0 6.4 0.00 0.00 0.00 64 1009.9
20260904220530 26 0 0.0 6.4 0.00 0.00 0.00 64 1010.0
20260904220053 26 26 1.6 6.4 0.00 0.00 0.00 62 1009.9
20260904215528 26 290 1.6 8.0 0.00 0.00 0.00 61 1009.8
20260904215032 26 281 3.2 8.0 0.00 0.00 0.00 60 1009.9
20260904214602 26 303 3.2 8.0 0.00 0.00 0.00 61 1010.0
20260904214027 26 310 0.0 4.8 0.00 0.00 0.00 62 1010.1
20260904213533 26 19 1.6 6.4 0.00 0.00 0.00 60 1010.1
20260904213056 25 306 1.6 6.4 0.00 0.00 0.00 59 1010.1
20260904212532 25 320 3.2 6.4 0.00 0.00 0.00 58 1010.1
20260904212028 25 326 1.6 8.0 0.00 0.00 0.00 58 1010.1
20260904211552 26 37 1.6 9.7 0.00 0.00 0.00 60 1010.1
20260904211031 26 284 3.2 9.7 0.00 0.00 0.00 57 1010.2
20260904210530 26 287 3.2 9.7 0.00 0.00 0.00 56 1010.1
20260904205531 26 333 4.8 19.3 0.00 0.00 0.00 55 1010.1
20260904205029 26 333 8.0 19.3 0.00 0.00 0.00 54 1010.1
20260904204557 26 298 4.8 17.7 0.00 0.00 0.00 56 1010.1
20260904204034 26 326 3.2 11.3 0.00 0.00 0.00 57 1010.1
20260904203530 26 6 3.2 8.0 0.00 0.00 0.00 57 1010.1
20260904203052 26 312 3.2 11.3 0.00 0.00 0.00 56 1010.0
20260904202530 27 342 3.2 11.3 0.00 0.00 0.00 55 1010.0
20260904202029 27 230 3.2 11.3 0.00 0.00 0.00 56 1009.9
20260904201546 27 310 3.2 14.5 0.00 0.00 0.00 57 1010.1
20260904201029 27 53 3.2 14.5 0.00 0.00 0.00 56 1010.1
20260904200529 27 340 4.8 14.5 0.00 0.00 0.00 56 1010.1
20260904200054 27 338 4.8 12.9 0.00 0.00 0.00 56 1010.1
20260904195531 27 20 4.8 16.1 0.00 0.00 0.00 58 1010.1
20260904195030 27 281 8.0 16.1 0.00 0.00 0.00 55 1010.2
20260904194551 27 25 6.4 12.9 0.00 0.00 0.00 57 1010.1
20260904194030 27 338 4.8 12.9 0.00 0.00 0.00 57 1010.2
20260904193530 26 304 4.8 12.9 0.00 0.00 0.00 59 1010.2
20260904193100 26 328 4.8 16.1 0.00 0.00 0.00 57 1010.2
20260904192530 26 314 4.8 16.1 0.00 0.00 0.00 57 1010.1
20260904192031 27 173 6.4 11.3 0.00 0.00 0.00 55 1010.3
20260904191555 27 308 3.2 11.3 0.00 0.00 0.00 55 1010.3
20260904191031 27 8 6.4 11.3 0.00 0.00 0.00 53 1010.3
20260904190533 27 319 4.8 12.9 0.00 0.00 0.00 54 1010.2
20260904190052 27 14 3.2 12.9 0.00 0.00 0.00 57 1010.1